Flag for U.S.A. Weather past 2 weeks in Boca Raton, Florida, U.S.A.

Now
76 °F

Light rain. Partly cloudy.


Feels Like: 76 °F
Forecast: 69 / 74 °F
Wind: 17 mph from West

Location: Pompano Beach - Pompano Beach Airpark

Current Time: Dec 25, 2014 at 3:45:12 AM

Latest Report: Dec 25, 2014 at 3:01 AM


Visibility: 7 mi

Pressure: 30.00 "Hg

Humidity: 88%

Dew point: 72 °F

Location of Boca RatonLocation

Historic Weather in Boca Raton — Graph

°F

Boca Raton temperature yesterday

Maximum temperature yesterday: 83 °F (at 10:53 AM)
Minimum temperature yesterday: 77 °F (at 12:53 AM)
Average temperature yesterday: 79 °F

Past Weeks' High & Low Weather Summary

 TemperatureHumidityPressure
High83 °F (Dec 23, 12:53 PM)97% (Dec 22, 6:53 AM)30.24 "Hg (Dec 22, 6:53 AM)
Low48 °F (Dec 11, 3:53 AM)32% (Dec 10, 2:53 PM)29.91 "Hg (Dec 24, 5:53 AM)
Average68 °F66%30.08 "Hg
* Reported Dec 10 2:53 AM — Dec 25 2:53 AM, Boca Raton, Weather by CustomWeather, © 2014

Note: Actual official high and low records may vary slightly from our data, if they occured in-between our weather recording intervals... More about our weather records

Advertising

Boca Raton weather history for previous 24 hours

 ConditionsComfort  
Time TempWeatherWind HumidityBarometerVisibility
2:53 AM
Dec 25
77 °FLight rain. Fog.9 mph88%29.99 "Hg5 mi
1:53 AM78 °FLight rain. Passing clouds.9 mph84%29.96 "Hg9 mi
12:53 AM78 °FClear.9 mph82%29.96 "Hg9 mi
11:53 PM
Dec 24
77 °FClear.8 mph85%29.97 "Hg8 mi
10:53 PM77 °FPassing clouds.10 mph88%29.98 "Hg7 mi
9:53 PM78 °FClear.12 mph84%29.98 "Hg7 mi
8:53 PM78 °FPassing clouds.14 mph87%29.98 "Hg7 mi
7:53 PM79 °FPartly cloudy.10 mph84%29.96 "Hg7 mi
6:53 PM79 °FLight rain. Passing clouds.8 mph82%29.95 "Hg7 mi
5:53 PM80 °FPartly cloudy.12 mph79%29.93 "Hg7 mi
4:53 PM80 °FBroken clouds.14 mph79%29.92 "Hg6 mi
3:53 PM81 °FBroken clouds.15 mph77%29.92 "Hg8 mi
2:53 PM82 °FScattered clouds.18 mph72%29.92 "Hg10 mi
1:53 PM82 °FBroken clouds.13 mph72%29.92 "Hg10 mi
12:53 PM83 °FPassing clouds.21 mph70%29.93 "Hg10 mi
12:00 PM83 °FSunny.21 mph70%29.95 "Hg9 mi
11:04 AM83 °FBroken clouds.17 mph70%29.97 "Hg10 mi
10:53 AM83 °FScattered clouds.13 mph70%29.98 "Hg10 mi
9:53 AM82 °FScattered clouds.12 mph72%29.97 "Hg10 mi
8:53 AM80 °FPassing clouds.16 mph74%29.96 "Hg10 mi
7:53 AM78 °FScattered clouds.10 mph79%29.95 "Hg9 mi
6:53 AM77 °FPassing clouds.13 mph79%29.94 "Hg10 mi
5:53 AM78 °FPartly cloudy.12 mph76%29.91 "Hg10 mi
4:53 AM77 °FPassing clouds.12 mph79%29.92 "Hg10 mi
3:53 AM77 °FClear.12 mph77%29.93 "Hg10 mi
Weather by CustomWeather, © 2014

See weather overviewHow to use our weather pages